Silver Bay, MN

4:59 AM CDT on April 25, 2018 (GMT -0500)
Silver Bay Municipal

Weather History for KBFW - February, 2013

Change the Weather History Date:

Thursday, February 7, 2013

  Actual Average Record
Temperature  
Mean Temperature 16 °F -  
Max Temperature 21 °F 24 °F 39 °F (2009)
Min Temperature 12 °F 2 °F -16 °F (2018)
Degree Days  
Heating Degree Days 48    
Moisture  
Dew Point 14 °F    
Average Humidity 83    
Maximum Humidity 93    
Minimum Humidity 73    
Precipitation  
Precipitation 0.00 in - - ()
Sea Level Pressure  
Sea Level Pressure 30.18 in    
Wind  
Wind Speed 9 mph (NE)    
Max Wind Speed 13 mph    
Max Gust Speed 22 mph    
Visibility 6 miles    
Events Snow    
Averages and records for this station are not official NWS values.
T = Trace of Precipitation, MM = Missing Value Source: NWS Daily Summary

Daily Weather History Graph

Daily Weather History Graph

Search for Another Location

Airport or City:

Astronomy

Feb. 07, 2013 Rise Set
Actual Time 7:22 AM CST 5:17 PM CST
Civil Twilight 6:50 AM CST 5:49 PM CST
Nautical Twilight 6:14 AM CST 6:26 PM CST
Astronomical Twilight 5:38 AM CST 7:01 PM CST
Moon 5:08 AM CST (2/7) 2:36 PM CST (2/7)
Length of Visible Light 10h 59m
Length of Day
9h 55m
Waning Crescent, 9% of the Moon is Illuminated
Feb 7
Waning Crescent
Feb 10
New
Feb 17
First Quarter
Feb 25
Full
Mar 4
Last Quarter

Hourly Weather History & Observations

Time (CST) Temp. Windchill Dew Point Humidity Pressure Visibility Wind Dir Wind Speed Gust Speed Precip Events Conditions
12:13 AM 19.4 °F 7.2 °F 15.8 °F 86% 30.09 in 10.0 mi ENE 11.5 mph 19.6 mph N/A   Overcast
12:33 AM 19.4 °F 6.6 °F 15.8 °F 86% 30.09 in 10.0 mi NE 12.7 mph 18.4 mph N/A   Overcast
12:53 AM 19.4 °F 9.5 °F 15.8 °F 86% 30.10 in 10.0 mi ENE 8.1 mph 19.6 mph N/A   Overcast
1:13 AM 19.4 °F 8.6 °F 15.8 °F 86% 30.09 in 10.0 mi ENE 9.2 mph - N/A   Overcast
1:33 AM 19.4 °F 7.9 °F 15.8 °F 86% 30.10 in 10.0 mi East 10.4 mph 16.1 mph N/A   Overcast
1:53 AM 19.4 °F 8.6 °F 15.8 °F 86% 30.10 in 10.0 mi ENE 9.2 mph - N/A   Overcast
2:13 AM 19.4 °F 6.6 °F 15.8 °F 86% 30.10 in 10.0 mi NE 12.7 mph 18.4 mph N/A   Overcast
2:33 AM 19.4 °F 7.2 °F 15.8 °F 86% 30.11 in 10.0 mi NE 11.5 mph 21.9 mph N/A   Overcast
2:53 AM 19.4 °F 7.2 °F 15.8 °F 86% 30.11 in 7.0 mi NE 11.5 mph 19.6 mph N/A   Overcast
3:13 AM 17.6 °F 6.4 °F 15.8 °F 93% 30.10 in 7.0 mi NE 9.2 mph - N/A   Overcast
3:33 AM 17.6 °F 7.3 °F 15.8 °F 93% 30.11 in 7.0 mi NE 8.1 mph - N/A   Overcast
3:53 AM 17.6 °F 6.4 °F 15.8 °F 93% 30.11 in 10.0 mi NE 9.2 mph - N/A   Overcast
4:13 AM 17.6 °F 5.7 °F 14.0 °F 86% 30.11 in 10.0 mi NE 10.4 mph - N/A   Overcast
4:33 AM 17.6 °F 9.3 °F 15.8 °F 93% 30.11 in 10.0 mi NE 5.8 mph - N/A   Overcast
4:53 AM 17.6 °F 7.3 °F 15.8 °F 93% 30.12 in 10.0 mi NE 8.1 mph 17.3 mph N/A   Overcast
5:13 AM 17.6 °F 7.3 °F 15.8 °F 93% 30.12 in 10.0 mi NE 8.1 mph - N/A   Overcast
5:33 AM 17.6 °F 7.3 °F 15.8 °F 93% 30.12 in 10.0 mi NE 8.1 mph - N/A   Overcast
5:53 AM 17.6 °F 8.2 °F 14.0 °F 86% 30.12 in 7.0 mi NNE 6.9 mph - N/A   Overcast
6:13 AM 17.6 °F 7.3 °F 14.0 °F 86% 30.13 in 7.0 mi NE 8.1 mph - N/A Snow Light Snow
6:33 AM 17.6 °F 6.4 °F 14.0 °F 86% 30.12 in 7.0 mi NE 9.2 mph - N/A Snow Light Snow
6:53 AM 17.6 °F 7.3 °F 14.0 °F 86% 30.13 in 7.0 mi NE 8.1 mph - N/A Snow Light Snow
7:13 AM 17.6 °F 5.7 °F 14.0 °F 86% 30.13 in 7.0 mi NE 10.4 mph 17.3 mph N/A Snow Light Snow
7:33 AM 17.6 °F 5.0 °F 14.0 °F 86% 30.14 in 5.0 mi NE 11.5 mph 17.3 mph N/A Snow Light Snow
7:53 AM 17.6 °F 5.7 °F 14.0 °F 86% 30.16 in 5.0 mi NE 10.4 mph - N/A Snow Light Snow
8:13 AM 17.6 °F 8.2 °F 14.0 °F 86% 30.17 in 3.0 mi NE 6.9 mph - N/A Snow Light Snow
8:33 AM 17.6 °F 5.7 °F 14.0 °F 86% 30.18 in 2.5 mi NE 10.4 mph - N/A Snow Light Snow
8:53 AM 17.6 °F 8.2 °F 12.2 °F 79% 30.17 in 2.5 mi NE 6.9 mph - N/A Snow Light Snow
9:13 AM 17.6 °F 7.3 °F 12.2 °F 79% 30.17 in 2.5 mi NE 8.1 mph - N/A Snow Light Snow
9:33 AM 19.4 °F 8.6 °F 12.2 °F 74% 30.17 in 4.0 mi NE 9.2 mph 16.1 mph N/A Snow Light Snow
9:53 AM 19.4 °F 8.6 °F 12.2 °F 74% 30.17 in 3.0 mi NE 9.2 mph - N/A Snow Light Snow
10:13 AM 19.4 °F 7.9 °F 14.0 °F 80% 30.18 in 3.0 mi ENE 10.4 mph 16.1 mph N/A Snow Light Snow
10:33 AM 19.4 °F 7.2 °F 14.0 °F 80% 30.18 in 5.0 mi ENE 11.5 mph - N/A Snow Light Snow
10:53 AM 19.4 °F 8.6 °F 14.0 °F 80% 30.19 in 4.0 mi ENE 9.2 mph 16.1 mph N/A Snow Light Snow
11:13 AM 19.4 °F 7.9 °F 14.0 °F 80% 30.20 in 4.0 mi NE 10.4 mph 16.1 mph N/A Snow Light Snow
11:33 AM 19.4 °F 8.6 °F 14.0 °F 80% 30.20 in 4.0 mi ENE 9.2 mph - N/A Snow Light Snow
11:53 AM 19.4 °F 6.6 °F 15.8 °F 86% 30.19 in 4.0 mi ENE 12.7 mph 18.4 mph N/A Snow Light Snow
12:09 PM 19.4 °F 7.2 °F 15.8 °F 86% 30.19 in 4.0 mi ENE 11.5 mph - N/A Snow Light Snow
12:16 PM 19.4 °F 7.2 °F 15.8 °F 86% 30.19 in 4.0 mi NE 11.5 mph - N/A Snow Light Snow
12:33 PM 19.4 °F 7.9 °F 15.8 °F 86% 30.19 in 4.0 mi NE 10.4 mph - N/A Snow Light Snow
12:47 PM 19.4 °F 6.6 °F 15.8 °F 86% 30.19 in 4.0 mi NE 12.7 mph 17.3 mph N/A Snow Light Snow
12:58 PM 19.4 °F 7.9 °F 14.0 °F 80% 30.19 in 4.0 mi NE 10.4 mph 17.3 mph N/A Snow Light Snow
1:13 PM 19.4 °F 9.5 °F 14.0 °F 80% 30.18 in 5.0 mi NE 8.1 mph - N/A   Mostly Cloudy
1:33 PM 21.2 °F 9.5 °F 15.8 °F 80% 30.18 in 4.0 mi NE 11.5 mph 18.4 mph N/A   Scattered Clouds
1:53 PM 21.2 °F 11.7 °F 15.8 °F 80% 30.18 in 5.0 mi NE 8.1 mph 17.3 mph N/A Snow Light Snow
2:13 PM 21.2 °F 9.5 °F 15.8 °F 80% 30.18 in 4.0 mi ENE 11.5 mph 16.1 mph N/A Snow Light Snow
2:33 PM 21.2 °F 9.5 °F 15.8 °F 80% 30.17 in 5.0 mi ENE 11.5 mph 17.3 mph N/A Snow Light Snow
2:53 PM 21.2 °F 9.5 °F 15.8 °F 80% 30.18 in 5.0 mi NE 11.5 mph - N/A Snow Light Snow
3:13 PM 21.2 °F 8.9 °F 14.0 °F 74% 30.18 in 4.0 mi NE 12.7 mph 18.4 mph N/A Snow Light Snow
3:33 PM 21.2 °F 10.9 °F 14.0 °F 74% 30.18 in 5.0 mi ENE 9.2 mph - N/A Snow Light Snow
3:53 PM 19.4 °F 10.4 °F 14.0 °F 80% 30.19 in 4.0 mi ENE 6.9 mph - N/A Snow Light Snow
4:13 PM 19.4 °F 11.5 °F 15.8 °F 86% 30.19 in 4.0 mi NE 5.8 mph - N/A Snow Light Snow
4:33 PM 19.4 °F 8.6 °F 14.0 °F 80% 30.19 in 4.0 mi ENE 9.2 mph - N/A Snow Light Snow
4:53 PM 19.4 °F 10.4 °F 14.0 °F 80% 30.20 in 5.0 mi NE 6.9 mph - N/A Snow Light Snow
5:33 PM 19.4 °F 12.8 °F 15.8 °F 86% 30.21 in 5.0 mi NE 4.6 mph - N/A Snow Light Snow
5:53 PM 19.4 °F 10.4 °F 14.0 °F 80% 30.22 in 4.0 mi NE 6.9 mph - N/A Snow Light Snow
6:13 PM 19.4 °F 14.3 °F 15.8 °F 86% 30.23 in 7.0 mi ENE 3.5 mph - N/A Snow Light Snow
6:33 PM 19.4 °F 12.8 °F 14.0 °F 80% 30.23 in 4.0 mi ENE 4.6 mph - N/A Snow Light Snow
6:53 PM 19.4 °F 12.8 °F 14.0 °F 80% 30.24 in 4.0 mi ENE 4.6 mph - N/A Snow Light Snow
7:13 PM 19.4 °F 12.8 °F 14.0 °F 80% 30.24 in 4.0 mi ENE 4.6 mph - N/A Snow Light Snow
7:33 PM 19.4 °F 11.5 °F 14.0 °F 80% 30.24 in 4.0 mi ENE 5.8 mph - N/A Snow Light Snow
7:53 PM 19.4 °F 12.8 °F 14.0 °F 80% 30.25 in 4.0 mi ENE 4.6 mph - N/A Snow Light Snow
8:13 PM 19.4 °F 11.5 °F 14.0 °F 80% 30.24 in 3.0 mi ENE 5.8 mph - N/A Snow Light Snow
8:33 PM 19.4 °F 8.6 °F 14.0 °F 80% 30.24 in 3.0 mi East 9.2 mph - N/A Snow Light Snow
8:53 PM 17.6 °F 9.3 °F 12.2 °F 79% 30.25 in 4.0 mi East 5.8 mph - N/A Snow Light Snow
9:13 PM 17.6 °F 7.3 °F 12.2 °F 79% 30.25 in 5.0 mi ENE 8.1 mph - N/A Snow Light Snow
9:33 PM 17.6 °F 8.2 °F 10.4 °F 73% 30.26 in 5.0 mi ENE 6.9 mph - N/A Snow Light Snow
9:53 PM 15.8 °F 7.2 °F 10.4 °F 79% 30.26 in 7.0 mi ENE 5.8 mph - N/A Snow Light Snow
10:13 PM 15.8 °F 7.2 °F 10.4 °F 79% 30.27 in 7.0 mi ENE 5.8 mph - N/A Snow Light Snow
10:33 PM 15.8 °F 10.2 °F 10.4 °F 79% 30.28 in 5.0 mi NE 3.5 mph - N/A Snow Light Snow
10:53 PM 15.8 °F 10.2 °F 8.6 °F 73% 30.28 in 7.0 mi NE 3.5 mph - N/A Snow Light Snow
11:13 PM 14.0 °F 8.2 °F 8.6 °F 79% 30.27 in 10.0 mi NE 3.5 mph - N/A Snow Light Snow
11:33 PM 12.2 °F - 8.6 °F 85% 30.28 in 5.0 mi Calm Calm - N/A Snow Light Snow
11:54 PM 12.2 °F - 8.6 °F 85% 30.28 in 5.0 mi Calm Calm - N/A Snow Light Snow